TimeMST,TemperatureF,Dew PointF,Humidity,Sea Level PressureIn,VisibilityMPH,Wind Direction,Wind SpeedMPH,Gust SpeedMPH,PrecipitationIn,Events,Conditions,WindDirDegrees,DateUTC
12:53 AM,33.1,28.0,82,30.18,10.0,East,4.6,-,N/A,,Clear,100,2013-11-18 07:53:00
1:53 AM,33.1,28.0,82,30.18,10.0,East,10.4,-,N/A,,Clear,90,2013-11-18 08:53:00
2:53 AM,32.0,27.0,82,30.19,10.0,ESE,8.1,-,N/A,,Clear,110,2013-11-18 09:53:00
3:53 AM,33.1,28.0,82,30.19,10.0,Variable,6.9,-,N/A,,Clear,0,2013-11-18 10:53:00
4:53 AM,32.0,27.0,82,30.22,10.0,East,3.5,-,N/A,,Clear,90,2013-11-18 11:53:00
5:53 AM,30.9,27.0,85,30.28,10.0,ESE,8.1,-,N/A,,Clear,110,2013-11-18 12:53:00
6:53 AM,32.0,27.0,82,30.30,10.0,SE,4.6,-,N/A,,Clear,130,2013-11-18 13:53:00
7:53 AM,34.0,27.0,75,30.31,10.0,East,11.5,-,N/A,,Clear,100,2013-11-18 14:53:00
8:53 AM,42.1,28.9,60,30.29,10.0,East,9.2,-,N/A,,Clear,100,2013-11-18 15:53:00
9:53 AM,45.0,28.0,52,30.28,10.0,ESE,11.5,-,N/A,,Clear,110,2013-11-18 16:53:00
10:53 AM,48.0,26.1,42,30.27,10.0,East,4.6,-,N/A,,Clear,90,2013-11-18 17:53:00
11:53 AM,50.0,27.0,41,30.23,10.0,Variable,3.5,-,N/A,,Clear,0,2013-11-18 18:53:00
12:53 PM,52.0,27.0,38,30.18,10.0,Calm,Calm,-,N/A,,Clear,0,2013-11-18 19:53:00
1:53 PM,54.0,27.0,35,30.14,10.0,SSE,4.6,-,N/A,,Clear,150,2013-11-18 20:53:00
2:53 PM,54.0,25.0,33,30.12,10.0,Calm,Calm,-,N/A,,Clear,0,2013-11-18 21:53:00
3:53 PM,54.0,26.1,34,30.11,10.0,Calm,Calm,-,N/A,,Clear,0,2013-11-18 22:53:00
4:53 PM,48.9,28.9,46,30.12,10.0,NW,3.5,-,N/A,,Clear,320,2013-11-18 23:53:00
5:53 PM,45.0,28.0,52,30.14,10.0,Calm,Calm,-,N/A,,Clear,0,2013-11-19 00:53:00
6:53 PM,37.0,28.0,70,30.16,10.0,Calm,Calm,-,N/A,,Clear,0,2013-11-19 01:53:00
7:53 PM,37.0,28.0,70,30.14,10.0,Calm,Calm,-,N/A,,Clear,0,2013-11-19 02:53:00
8:53 PM,36.0,27.0,70,30.13,10.0,East,5.8,-,N/A,,Clear,90,2013-11-19 03:53:00
9:53 PM,36.0,27.0,70,30.12,10.0,ESE,9.2,-,N/A,,Clear,110,2013-11-19 04:53:00
10:53 PM,36.0,27.0,70,30.10,10.0,East,9.2,-,N/A,,Clear,90,2013-11-19 05:53:00
11:53 PM,33.1,25.0,72,30.09,10.0,ESE,6.9,-,N/A,,Clear,120,2013-11-19 06:53:00